Location: Evergreen Manor
(41.4083°N, 81.4939°W)
Time: 19:10:09
(UTC+00:00)

Cosmos 1461 - Pass Details

Date: 11 December 2019
Orbit: 518 x 649 km, 65.0° (Epoch: 27 January)

Event Time Altitude Azimuth Distance (km) Brightness Sun altitude
Exits shadow 10:06:23 39° 136° (SE) 892 4.1 -28.3°
Drops below altitude 10° 10:09:15 10° 144° (SE) 1,955 6.1 -27.7°
Sets 10:11:34 0° 146° (SE) 2,876 7.1 -27.3°
